TimePDT,TemperatureF,Dew PointF,Humidity,Sea Level PressureIn,VisibilityMPH,Wind Direction,Wind SpeedMPH,Gust SpeedMPH,PrecipitationIn,Events,Conditions,WindDirDegrees,DateUTC
12:54 AM,66.0,42.1,42,29.90,10.0,NNW,17.3,-,N/A,,Clear,330,2013-06-19 07:54:00
1:54 AM,64.9,39.0,39,29.91,10.0,NNW,15.0,23.0,N/A,,Clear,340,2013-06-19 08:54:00
2:54 AM,62.1,41.0,46,29.94,10.0,West,5.8,-,N/A,,Clear,280,2013-06-19 09:54:00
3:54 AM,57.9,41.0,53,29.96,10.0,NW,5.8,-,N/A,,Clear,310,2013-06-19 10:54:00
4:54 AM,57.9,41.0,53,29.97,10.0,WNW,10.4,-,N/A,,Clear,300,2013-06-19 11:54:00
5:54 AM,57.9,41.0,53,29.98,10.0,WNW,8.1,-,N/A,,Clear,300,2013-06-19 12:54:00
6:54 AM,59.0,41.0,51,30.00,10.0,NW,4.6,-,N/A,,Clear,310,2013-06-19 13:54:00
7:54 AM,61.0,42.1,50,30.01,10.0,NW,5.8,-,N/A,,Clear,320,2013-06-19 14:54:00
8:54 AM,64.0,42.1,45,30.01,10.0,NW,10.4,-,N/A,,Clear,320,2013-06-19 15:54:00
9:54 AM,66.0,41.0,40,30.01,10.0,NNW,8.1,-,N/A,,Clear,330,2013-06-19 16:54:00
10:54 AM,69.1,39.9,35,30.00,10.0,NNW,6.9,-,N/A,,Clear,340,2013-06-19 17:54:00
11:54 AM,72.0,39.0,30,29.99,10.0,NW,13.8,18.4,N/A,,Clear,310,2013-06-19 18:54:00
12:54 PM,71.1,39.9,32,29.99,10.0,Variable,4.6,17.3,N/A,,Clear,0,2013-06-19 19:54:00
1:54 PM,73.9,39.0,28,29.97,10.0,Variable,6.9,-,N/A,,Clear,0,2013-06-19 20:54:00
2:54 PM,77.0,37.9,24,29.95,10.0,WNW,9.2,17.3,N/A,,Clear,290,2013-06-19 21:54:00
3:54 PM,80.1,36.0,20,29.93,10.0,NW,12.7,17.3,N/A,,Clear,320,2013-06-19 22:54:00
4:54 PM,79.0,36.0,21,29.91,10.0,West,6.9,-,N/A,,Clear,280,2013-06-19 23:54:00
5:54 PM,80.1,37.0,21,29.90,10.0,WNW,13.8,-,N/A,,Clear,300,2013-06-20 00:54:00
6:54 PM,79.0,36.0,21,29.90,10.0,NW,11.5,-,N/A,,Clear,310,2013-06-20 01:54:00
7:54 PM,77.0,36.0,23,29.91,10.0,NNW,6.9,-,N/A,,Clear,330,2013-06-20 02:54:00
8:54 PM,73.0,37.9,28,29.91,10.0,NW,3.5,-,N/A,,Clear,320,2013-06-20 03:54:00
9:54 PM,71.1,37.0,29,29.92,10.0,North,3.5,-,N/A,,Clear,350,2013-06-20 04:54:00
10:54 PM,71.1,39.0,31,29.92,10.0,North,6.9,-,N/A,,Clear,350,2013-06-20 05:54:00
11:54 PM,66.0,37.9,36,29.92,10.0,North,4.6,-,N/A,,Clear,350,2013-06-20 06:54:00